Time,TemperatureF,DewpointF,PressureIn,WindDirection,WindDirectionDegrees,WindSpeedMPH,WindSpeedGustMPH,Humidity,HourlyPrecipIn,Conditions,Clouds,dailyrainin,SoftwareType,DateUTC
2013-02-08 00:01:00,54.0,46.0,30.13,NW,318,1.0,10.0,73,0.00,,,0.00,,2013-02-08 06:01:00,
2013-02-08 00:11:00,54.0,46.0,30.13,NW,318,1.0,10.0,73,0.00,,,0.00,,2013-02-08 06:11:00,
2013-02-08 00:21:00,53.0,45.0,30.14,West,274,1.0,5.0,73,0.00,,,0.00,,2013-02-08 06:21:00,
2013-02-08 00:31:00,52.0,44.0,30.14,West,277,2.0,5.0,73,0.00,,,0.00,,2013-02-08 06:31:00,
2013-02-08 00:42:00,52.0,44.0,30.14,West,277,2.0,5.0,73,0.00,,,0.00,,2013-02-08 06:42:00,
2013-02-08 00:51:00,52.0,44.0,30.14,NW,312,2.0,7.0,74,0.00,,,0.00,,2013-02-08 06:51:00,
2013-02-08 01:01:00,51.0,43.0,30.14,NW,311,3.0,9.0,75,0.00,,,0.00,,2013-02-08 07:01:00,
2013-02-08 01:11:00,51.0,44.0,30.15,WNW,285,1.0,7.0,76,0.00,,,0.00,,2013-02-08 07:11:00,
2013-02-08 01:21:00,51.0,44.0,30.15,WNW,285,1.0,7.0,76,0.00,,,0.00,,2013-02-08 07:21:00,
2013-02-08 01:32:00,51.0,44.0,30.15,West,273,1.0,8.0,77,0.00,,,0.00,,2013-02-08 07:32:00,
2013-02-08 01:42:00,50.0,43.0,30.15,WSW,245,2.0,10.0,78,0.00,,,0.00,,2013-02-08 07:42:00,
2013-02-08 01:51:00,50.0,43.0,30.15,WSW,245,2.0,10.0,78,0.00,,,0.00,,2013-02-08 07:51:00,
2013-02-08 02:01:00,50.0,43.0,30.15,WNW,288,1.0,6.0,77,0.00,,,0.00,,2013-02-08 08:01:00,
2013-02-08 02:11:00,49.0,42.0,30.16,WNW,285,3.0,8.0,77,0.00,,,0.00,,2013-02-08 08:11:00,
2013-02-08 02:21:00,49.0,42.0,30.16,WNW,285,3.0,8.0,77,0.00,,,0.00,,2013-02-08 08:21:00,
2013-02-08 02:32:00,49.0,42.0,30.16,West,259,3.0,7.0,76,0.00,,,0.00,,2013-02-08 08:32:00,
2013-02-08 02:42:00,49.0,42.0,30.16,West,259,3.0,7.0,76,0.00,,,0.00,,2013-02-08 08:42:00,
2013-02-08 02:52:00,49.0,41.0,30.17,WNW,302,1.0,5.0,75,0.00,,,0.00,,2013-02-08 08:52:00,
2013-02-08 03:03:00,49.0,41.0,30.16,WSW,246,0.0,6.0,75,0.00,,,0.00,,2013-02-08 09:03:00,
2013-02-08 03:11:00,49.0,41.0,30.16,WSW,246,0.0,6.0,75,0.00,,,0.00,,2013-02-08 09:11:00,
2013-02-08 03:21:00,48.0,40.0,30.17,WNW,297,2.0,9.0,75,0.00,,,0.00,,2013-02-08 09:21:00,
2013-02-08 03:32:00,48.0,40.0,30.17,NW,326,1.0,8.0,75,0.00,,,0.00,,2013-02-08 09:32:00,
2013-02-08 03:42:00,48.0,40.0,30.17,NW,326,1.0,8.0,75,0.00,,,0.00,,2013-02-08 09:42:00,
2013-02-08 03:52:00,47.0,39.0,30.17,WNW,300,1.0,6.0,75,0.00,,,0.00,,2013-02-08 09:52:00,
2013-02-08 04:01:00,47.0,39.0,30.18,NE,44,1.0,6.0,75,0.00,,,0.00,,2013-02-08 10:01:00,
2013-02-08 04:11:00,47.0,39.0,30.18,NE,44,1.0,6.0,75,0.00,,,0.00,,2013-02-08 10:11:00,
2013-02-08 04:22:00,47.0,39.0,30.18,SW,228,1.0,9.0,75,0.00,,,0.00,,2013-02-08 10:22:00,
2013-02-08 04:31:00,46.0,39.0,30.19,NW,317,1.0,6.0,76,0.00,,,0.00,,2013-02-08 10:31:00,
2013-02-08 04:42:00,46.0,39.0,30.19,NW,317,1.0,6.0,76,0.00,,,0.00,,2013-02-08 10:42:00,
2013-02-08 04:51:00,46.0,39.0,30.19,NNE,22,0.0,7.0,76,0.00,,,0.00,,2013-02-08 10:51:00,
2013-02-08 05:01:00,45.0,38.0,30.19,SSW,210,0.0,6.0,77,0.00,,,0.00,,2013-02-08 11:01:00,
2013-02-08 05:11:00,45.0,38.0,30.19,SSW,210,0.0,6.0,77,0.00,,,0.00,,2013-02-08 11:11:00,
2013-02-08 05:21:00,45.0,38.0,30.20,WNW,293,0.0,5.0,77,0.00,,,0.00,,2013-02-08 11:21:00,
2013-02-08 05:32:00,45.0,38.0,30.20,West,280,1.0,5.0,77,0.00,,,0.00,,2013-02-08 11:32:00,
2013-02-08 05:42:00,45.0,38.0,30.20,West,280,1.0,5.0,77,0.00,,,0.00,,2013-02-08 11:42:00,
2013-02-08 05:52:00,44.0,38.0,30.21,SW,232,0.0,5.0,78,0.00,,,0.00,,2013-02-08 11:52:00,
2013-02-08 06:02:00,44.0,38.0,30.22,WSW,257,0.0,6.0,78,0.00,,,0.00,,2013-02-08 12:02:00,
2013-02-08 06:11:00,44.0,38.0,30.22,WSW,257,0.0,6.0,78,0.00,,,0.00,,2013-02-08 12:11:00,
2013-02-08 06:22:00,43.0,37.0,30.23,NW,311,1.0,5.0,79,0.00,,,0.00,,2013-02-08 12:22:00,
2013-02-08 06:33:00,43.0,37.0,30.23,WNW,291,0.0,6.0,79,0.00,,,0.00,,2013-02-08 12:33:00,
2013-02-08 06:42:00,43.0,37.0,30.23,WNW,291,0.0,6.0,79,0.00,,,0.00,,2013-02-08 12:42:00,
2013-02-08 06:52:00,43.0,37.0,30.24,WNW,283,1.0,4.0,80,0.00,,,0.00,,2013-02-08 12:52:00,
2013-02-08 07:01:00,42.0,36.0,30.24,NW,323,0.0,3.0,80,0.00,,,0.00,,2013-02-08 13:01:00,
2013-02-08 07:11:00,42.0,36.0,30.24,NW,323,0.0,3.0,80,0.00,,,0.00,,2013-02-08 13:11:00,
2013-02-08 07:22:00,42.0,37.0,30.25,SSE,163,0.0,4.0,81,0.00,,,0.00,,2013-02-08 13:22:00,
2013-02-08 07:32:00,42.0,37.0,30.26,NW,309,0.0,4.0,81,0.00,,,0.00,,2013-02-08 13:32:00,
2013-02-08 07:42:00,42.0,37.0,30.26,NW,309,0.0,4.0,81,0.00,,,0.00,,2013-02-08 13:42:00,
2013-02-08 07:51:00,41.0,36.0,30.26,WNW,290,0.0,5.0,82,0.00,,,0.00,,2013-02-08 13:51:00,
2013-02-08 08:02:00,41.0,36.0,30.27,NNW,331,0.0,4.0,82,0.00,,,0.00,,2013-02-08 14:02:00,
2013-02-08 08:11:00,41.0,36.0,30.27,NNW,331,0.0,4.0,82,0.00,,,0.00,,2013-02-08 14:11:00,
2013-02-08 08:21:00,41.0,36.0,30.27,NNW,331,0.0,4.0,82,0.00,,,0.00,,2013-02-08 14:21:00,
2013-02-08 08:32:00,43.0,37.0,30.28,WNW,294,1.0,6.0,79,0.00,,,0.00,,2013-02-08 14:32:00,
2013-02-08 08:42:00,43.0,37.0,30.28,WNW,294,1.0,6.0,79,0.00,,,0.00,,2013-02-08 14:42:00,
2013-02-08 08:52:00,43.0,37.0,30.27,NW,314,1.0,7.0,78,0.00,,,0.00,,2013-02-08 14:52:00,
2013-02-08 09:02:00,44.0,37.0,30.28,SE,127,0.0,6.0,75,0.00,,,0.00,,2013-02-08 15:02:00,
2013-02-08 09:11:00,44.0,37.0,30.28,SE,127,0.0,6.0,75,0.00,,,0.00,,2013-02-08 15:11:00,
2013-02-08 09:22:00,45.0,37.0,30.28,West,278,1.0,4.0,74,0.00,,,0.00,,2013-02-08 15:22:00,
2013-02-08 09:32:00,46.0,37.0,30.29,ENE,66,0.0,8.0,72,0.00,,,0.00,,2013-02-08 15:32:00,
2013-02-08 09:42:00,46.0,37.0,30.29,ENE,66,0.0,8.0,72,0.00,,,0.00,,2013-02-08 15:42:00,
2013-02-08 09:52:00,47.0,37.0,30.29,ENE,73,1.0,8.0,68,0.00,,,0.00,,2013-02-08 15:52:00,
2013-02-08 10:01:00,48.0,37.0,30.29,WNW,297,0.0,5.0,65,0.00,,,0.00,,2013-02-08 16:01:00,
2013-02-08 10:11:00,48.0,37.0,30.29,WNW,297,0.0,5.0,65,0.00,,,0.00,,2013-02-08 16:11:00,
2013-02-08 10:21:00,49.0,37.0,30.30,NNE,29,0.0,3.0,62,0.00,,,0.00,,2013-02-08 16:21:00,
2013-02-08 10:32:00,51.0,37.0,30.29,WNW,286,1.0,4.0,59,0.00,,,0.00,,2013-02-08 16:32:00,
2013-02-08 10:42:00,51.0,37.0,30.29,WNW,286,1.0,4.0,59,0.00,,,0.00,,2013-02-08 16:42:00,
2013-02-08 10:51:00,52.0,36.0,30.30,WNW,300,1.0,6.0,55,0.00,,,0.00,,2013-02-08 16:51:00,
2013-02-08 11:03:00,53.0,34.0,30.29,WNW,283,3.0,8.0,49,0.00,,,0.00,,2013-02-08 17:03:00,
2013-02-08 11:12:00,54.0,34.0,30.29,WNW,297,1.0,6.0,46,0.00,,,0.00,,2013-02-08 17:12:00,
2013-02-08 11:22:00,54.0,34.0,30.29,WNW,297,1.0,6.0,46,0.00,,,0.00,,2013-02-08 17:22:00,
2013-02-08 11:32:00,55.0,34.0,30.28,NW,308,2.0,6.0,45,0.00,,,0.00,,2013-02-08 17:32:00,
2013-02-08 11:42:00,55.0,34.0,30.28,NW,308,2.0,6.0,45,0.00,,,0.00,,2013-02-08 17:42:00,
2013-02-08 11:52:00,56.0,33.0,30.28,NW,312,2.0,7.0,42,0.00,,,0.00,,2013-02-08 17:52:00,
2013-02-08 12:02:00,57.0,33.0,30.27,NW,307,1.0,7.0,40,0.00,,,0.00,,2013-02-08 18:02:00,
2013-02-08 12:12:00,57.0,33.0,30.27,NW,307,1.0,7.0,40,0.00,,,0.00,,2013-02-08 18:12:00,
2013-02-08 12:24:00,58.0,33.0,30.28,ENE,60,1.0,5.0,38,0.00,,,0.00,,2013-02-08 18:24:00,
2013-02-08 12:34:00,58.0,31.0,30.27,East,81,2.0,8.0,35,0.00,,,0.00,,2013-02-08 18:34:00,
2013-02-08 12:43:00,58.0,31.0,30.27,East,81,2.0,8.0,35,0.00,,,0.00,,2013-02-08 18:43:00,
2013-02-08 12:52:00,59.0,31.0,30.27,NNW,335,1.0,9.0,35,0.00,,,0.00,,2013-02-08 18:52:00,
2013-02-08 13:02:00,59.0,29.0,30.26,NNE,22,1.0,4.0,32,0.00,,,0.00,,2013-02-08 19:02:00,
2013-02-08 13:11:00,59.0,29.0,30.26,NNE,22,1.0,4.0,32,0.00,,,0.00,,2013-02-08 19:11:00,
2013-02-08 13:22:00,60.0,28.0,30.25,ENE,70,2.0,7.0,29,0.00,,,0.00,,2013-02-08 19:22:00,
2013-02-08 13:32:00,60.0,28.0,30.24,NNE,32,3.0,8.0,30,0.00,,,0.00,,2013-02-08 19:32:00,
2013-02-08 13:52:00,61.0,30.0,30.23,ENE,70,1.0,5.0,31,0.00,,,0.00,,2013-02-08 19:52:00,
2013-02-08 14:02:00,61.0,26.0,30.23,ESE,105,1.0,9.0,26,0.00,,,0.00,,2013-02-08 20:02:00,
2013-02-08 14:21:00,61.0,29.0,30.22,NNE,21,3.0,8.0,30,0.00,,,0.00,,2013-02-08 20:21:00,
2013-02-08 14:32:00,62.0,29.0,30.21,NE,49,4.0,8.0,29,0.00,,,0.00,,2013-02-08 20:32:00,
2013-02-08 14:42:00,62.0,29.0,30.21,NE,49,4.0,8.0,29,0.00,,,0.00,,2013-02-08 20:42:00,
2013-02-08 14:52:00,62.0,28.0,30.21,NE,47,4.0,8.0,27,0.00,,,0.00,,2013-02-08 20:52:00,
2013-02-08 15:02:00,62.0,30.0,30.20,NE,46,2.0,4.0,30,0.00,,,0.00,,2013-02-08 21:02:00,
2013-02-08 15:11:00,62.0,30.0,30.20,NE,46,2.0,4.0,30,0.00,,,0.00,,2013-02-08 21:11:00,
2013-02-08 15:22:00,62.0,29.0,30.20,West,276,1.0,4.0,29,0.00,,,0.00,,2013-02-08 21:22:00,
2013-02-08 15:32:00,62.0,29.0,30.20,East,84,2.0,5.0,29,0.00,,,0.00,,2013-02-08 21:32:00,
2013-02-08 15:42:00,62.0,29.0,30.20,East,84,2.0,5.0,29,0.00,,,0.00,,2013-02-08 21:42:00,
2013-02-08 15:52:00,62.0,29.0,30.19,East,89,0.0,4.0,29,0.00,,,0.00,,2013-02-08 21:52:00,
2013-02-08 16:02:00,62.0,27.0,30.20,ENE,75,1.0,7.0,26,0.00,,,0.00,,2013-02-08 22:02:00,
2013-02-08 16:11:00,62.0,27.0,30.20,ENE,75,1.0,7.0,26,0.00,,,0.00,,2013-02-08 22:11:00,
2013-02-08 16:21:00,62.0,29.0,30.19,NE,45,2.0,4.0,28,0.00,,,0.00,,2013-02-08 22:21:00,
2013-02-08 16:32:00,62.0,28.0,30.19,North,354,0.0,3.0,27,0.00,,,0.00,,2013-02-08 22:32:00,
2013-02-08 16:42:00,62.0,28.0,30.19,North,354,0.0,3.0,27,0.00,,,0.00,,2013-02-08 22:42:00,
2013-02-08 16:51:00,62.0,29.0,30.19,East,84,0.0,3.0,28,0.00,,,0.00,,2013-02-08 22:51:00,
2013-02-08 17:01:00,62.0,30.0,30.19,ENE,63,1.0,3.0,30,0.00,,,0.00,,2013-02-08 23:01:00,
2013-02-08 17:11:00,62.0,30.0,30.19,ENE,63,1.0,3.0,30,0.00,,,0.00,,2013-02-08 23:11:00,
2013-02-08 17:21:00,61.0,29.0,30.18,ESE,105,1.0,5.0,30,0.00,,,0.00,,2013-02-08 23:21:00,
2013-02-08 17:32:00,60.0,29.0,30.18,NE,36,1.0,4.0,31,0.00,,,0.00,,2013-02-08 23:32:00,
2013-02-08 17:42:00,60.0,29.0,30.18,NE,36,1.0,4.0,31,0.00,,,0.00,,2013-02-08 23:42:00,
2013-02-08 17:52:00,59.0,29.0,30.18,ENE,61,1.0,4.0,32,0.00,,,0.00,,2013-02-08 23:52:00,
2013-02-08 18:02:00,59.0,30.0,30.18,ENE,62,1.0,6.0,33,0.00,,,0.00,,2013-02-09 00:02:00,
2013-02-08 18:11:00,59.0,30.0,30.18,ENE,62,1.0,6.0,33,0.00,,,0.00,,2013-02-09 00:11:00,
2013-02-08 18:21:00,58.0,30.0,30.18,NE,37,0.0,2.0,34,0.00,,,0.00,,2013-02-09 00:21:00,
2013-02-08 18:32:00,57.0,31.0,30.18,East,87,0.0,4.0,37,0.00,,,0.00,,2013-02-09 00:32:00,
2013-02-08 18:42:00,57.0,31.0,30.18,East,87,0.0,4.0,37,0.00,,,0.00,,2013-02-09 00:42:00,
2013-02-08 18:52:00,57.0,32.0,30.18,ENE,57,1.0,3.0,39,0.00,,,0.00,,2013-02-09 00:52:00,
2013-02-08 19:01:00,56.0,33.0,30.17,NNE,20,1.0,5.0,41,0.00,,,0.00,,2013-02-09 01:01:00,
2013-02-08 19:11:00,56.0,33.0,30.17,NNE,20,1.0,5.0,41,0.00,,,0.00,,2013-02-09 01:11:00,
2013-02-08 19:21:00,56.0,33.0,30.17,ENE,68,0.0,2.0,42,0.00,,,0.00,,2013-02-09 01:21:00,
2013-02-08 19:32:00,55.0,33.0,30.17,ENE,76,0.0,3.0,44,0.00,,,0.00,,2013-02-09 01:32:00,
2013-02-08 19:42:00,55.0,33.0,30.17,ENE,76,0.0,3.0,44,0.00,,,0.00,,2013-02-09 01:42:00,
2013-02-08 19:52:00,55.0,34.0,30.17,East,86,0.0,2.0,45,0.00,,,0.00,,2013-02-09 01:52:00,
2013-02-08 20:01:00,54.0,35.0,30.17,ENE,75,0.0,1.0,48,0.00,,,0.00,,2013-02-09 02:01:00,
2013-02-08 20:11:00,53.0,34.0,30.19,ENE,70,0.0,2.0,48,0.00,,,0.00,,2013-02-09 02:11:00,
2013-02-08 20:21:00,53.0,34.0,30.19,ENE,70,0.0,2.0,48,0.00,,,0.00,,2013-02-09 02:21:00,
2013-02-08 20:32:00,53.0,35.0,30.19,NE,53,0.0,2.0,50,0.00,,,0.00,,2013-02-09 02:32:00,
2013-02-08 20:42:00,53.0,35.0,30.19,NE,53,0.0,2.0,50,0.00,,,0.00,,2013-02-09 02:42:00,
2013-02-08 20:52:00,52.0,35.0,30.19,East,80,0.0,1.0,52,0.00,,,0.00,,2013-02-09 02:52:00,
2013-02-08 21:02:00,51.0,35.0,30.19,NE,46,0.0,0.0,54,0.00,,,0.00,,2013-02-09 03:02:00,
2013-02-08 21:11:00,51.0,35.0,30.19,NE,46,0.0,0.0,54,0.00,,,0.00,,2013-02-09 03:11:00,
2013-02-08 21:21:00,50.0,35.0,30.19,East,80,0.0,3.0,56,0.00,,,0.00,,2013-02-09 03:21:00,
2013-02-08 21:32:00,50.0,36.0,30.19,East,94,0.0,0.0,58,0.00,,,0.00,,2013-02-09 03:32:00,
2013-02-08 21:42:00,50.0,36.0,30.19,East,94,0.0,0.0,58,0.00,,,0.00,,2013-02-09 03:42:00,
2013-02-08 21:52:00,50.0,36.0,30.18,ENE,57,0.0,2.0,58,0.00,,,0.00,,2013-02-09 03:52:00,
2013-02-08 22:02:00,51.0,36.0,30.18,ENE,70,0.0,3.0,57,0.00,,,0.00,,2013-02-09 04:02:00,
2013-02-08 22:12:00,51.0,36.0,30.19,ENE,63,0.0,3.0,57,0.00,,,0.00,,2013-02-09 04:12:00,
2013-02-08 22:23:00,51.0,36.0,30.19,ENE,63,0.0,3.0,57,0.00,,,0.00,,2013-02-09 04:23:00,
2013-02-08 22:32:00,50.0,37.0,30.19,ENE,63,0.0,0.0,60,0.00,,,0.00,,2013-02-09 04:32:00,
2013-02-08 22:42:00,50.0,37.0,30.19,ENE,63,0.0,0.0,60,0.00,,,0.00,,2013-02-09 04:42:00,
2013-02-08 22:52:00,48.0,36.0,30.19,ENE,64,0.0,0.0,64,0.00,,,0.00,,2013-02-09 04:52:00,
2013-02-08 23:02:00,46.0,36.0,30.18,ENE,64,0.0,0.0,68,0.00,,,0.00,,2013-02-09 05:02:00,
2013-02-08 23:12:00,46.0,36.0,30.18,ENE,64,0.0,0.0,68,0.00,,,0.00,,2013-02-09 05:12:00,
2013-02-08 23:22:00,47.0,37.0,30.17,ENE,75,0.0,2.0,67,0.00,,,0.00,,2013-02-09 05:22:00,
2013-02-08 23:32:00,48.0,36.0,30.17,East,88,0.0,2.0,62,0.00,,,0.00,,2013-02-09 05:32:00,
2013-02-08 23:42:00,48.0,36.0,30.17,East,88,0.0,2.0,62,0.00,,,0.00,,2013-02-09 05:42:00,
2013-02-08 23:52:00,49.0,36.0,30.18,East,95,0.0,3.0,60,0.00,,,0.00,,2013-02-09 05:52:00,